Find Kosmos-1999

NORAD ID: 19790 Int'l Des: 1989-009 Owner: UNKS Country: SU operational
LEOCIRCULARPOLAR

現在のビュー

3D地球を読み込み中...

Kosmos-1999について

説明を読み込み中...

次回通過

Passes for default location (London). Set your location on the main map for personalized predictions.

高度履歴

Loading altitude history...

軌道要素

1 19790U 89009F 26150.56832529 .00000040 00000-0 15604-3 0 9999
2 19790 82.6184 337.9909 0018564 262.5847 152.8196 12.65750569723027
Epoch: May 30, 2026 • Age: 15 hours

現在のステータス

高度 1404.2 km
速度 7.16 km/s
衛星直下点 -22.78°S, 19.76°E
打ち上げ日 Feb 10, 1989
運用期間 37.3 years
タイプ other

技術仕様

分類 Payload
質量 225.00 kg
乾燥質量 225.00 kg
総質量 225.00 kg
長さ 1.60 m
直径 0.80 m
スパン 7.00 m
形状 Cyl + Ant
製造者 NPOPM
バスタイプ Strela-3
フェーズステータス In Orbit
所有者/国 UNKS/SU

Most Searched